This demonstration page uses our WeatherBlox Daily Observations layout. Learn more.

Left ArrowRight Arrow

Hourly Observations for August 1, 2015

Temp ( °F °C ) Dew Point ( °F °C ) Humidity (%) Winds ( mph kmh ) Pressure ( in mb ) Visibility ( mi km ) Precip ( " mm )
12:53 am 00:53 Clear 65 18.3 62 16.7 90 90 N N/A 29.97 1015 10 16 N/A
1:53 am 01:53 Clear 66 18.9 61 16.1 84 84 N N/A 29.98 1015 10 16 N/A
2:53 am 02:53 Clear 64 17.8 61 16.1 90 90 W 3 6 29.98 1015 10 16 N/A
3:53 am 03:53 Clear 62 16.7 60 15.6 93 93 N N/A 29.97 1015 10 16 N/A
4:53 am 04:53 Clear 61 16.1 59 15 93 93 N N/A 29.97 1015 10 16 N/A
5:53 am 05:53 Clear 59 15 58 14.4 96 96 N N/A 29.97 1015 10 16 N/A
6:53 am 06:53 Sunny 60 15.6 58 14.4 93 93 N N/A 29.97 1015 10 16 N/A
7:53 am 07:53 Sunny 66 18.9 62 16.7 87 87 N N/A 29.99 1016 10 16 N/A
8:53 am 08:53 Sunny 71 21.7 62 16.7 73 73 N N/A 30.01 1016 10 16 N/A
9:53 am 09:53 Sunny 76 24.4 63 17.2 64 64 VRB 3 6 30.01 1016 10 16 N/A
10:53 am 10:53 Sunny 79 26.1 57 13.9 47 47 NW 8 13 30.01 1016 10 16 N/A
11:53 am 11:53 Sunny 82 27.8 58 14.4 44 44 N 7 11 30.01 1016 10 16 N/A
12:53 pm 12:53 Sunny 82 27.8 55 12.8 40 40 NNW 7 11 30.01 1016 10 16 N/A
1:53 pm 13:53 Mostly Sunny 83 28.3 55 12.8 38 38 NW 8 13 29.99 1016 10 16 N/A
2:53 pm 14:53 Mostly Sunny 83 28.3 56 13.3 40 40 NNW 9 15 29.98 1015 10 16 N/A
3:53 pm 15:53 Mostly Cloudy 84 28.9 56 13.3 38 38 W 7 11 29.98 1015 10 16 N/A
4:53 pm 16:53 Sunny 84 28.9 56 13.3 38 38 VRB 5 7 29.97 1015 10 16 N/A
5:53 pm 17:53 Sunny 83 28.3 54 12.2 37 37 WNW 9 15 29.97 1015 10 16 N/A
6:53 pm 18:53 Partly Cloudy 80 26.7 57 13.9 45 45 WNW 6 9 29.96 1015 10 16 N/A
7:53 pm 19:53 Sunny 78 25.6 60 15.6 54 54 W 5 7 29.96 1015 10 16 N/A
8:53 pm 20:53 Clear 69 20.6 62 16.7 78 78 N N/A 29.97 1015 10 16 N/A
9:53 pm 21:53 Clear 66 18.9 62 16.7 87 87 N N/A 29.98 1015 10 16 N/A
10:53 pm 22:53 Clear 65 18.3 62 16.7 90 90 N N/A 29.98 1015 10 16 N/A
11:53 pm 23:53 Clear 64 17.8 62 16.7 93 93 N N/A 29.98 1015 10 16 N/A

Powered by AerisWeather